Location: Unspecified
(0.0000°N, 0.0000°E)
Time: 11:07:59
(UTC+02:00)

Iridium 75 - Visible Passes

Search period start: 26 April 2018 00:00
Search period end: 06 May 2018 00:00
Orbit: 776 x 779 km, 86.4° (Epoch: 25 April)

Date Brightness Start Highest point End Pass type
(mag) Time Alt. Az. Time Alt. Az. Time Alt. Az.
26 Apr 7.9 05:27:29 10° NNE 05:29:48 25° NNE 05:29:48 25° NNE visible
27 Apr 9.0 04:55:14 10° NE 04:55:20 10° NE 04:55:20 10° NE visible
27 Apr 8.1 06:35:23 10° NW 06:35:44 11° NW 06:35:44 11° NW visible
28 Apr 8.3 06:00:55 10° NNW 06:01:26 13° NNW 06:01:26 13° NNW visible
